Hourly Weather Newport

Today, 26 January, Tuesday

Time Temperature Precipitation Wind Pressure Humidity
00:00 +1°C° 0 mm 3 mps 760 mmHg 87%
01:00 0°C° 0 mm 4 mps 760 mmHg 88%
02:00 0°C° 0 mm 4 mps 760 mmHg 88%
03:00 +1°C° 0 mm 5 mps 760 mmHg 89%
04:00 +1°C° 0 mm 5 mps 760 mmHg 90%
05:00 +1°C° 0 mm 5 mps 760 mmHg 91%
06:00 +2°C° 0 mm 5 mps 759 mmHg 92%
07:00 +2°C° 0.6 mm 6 mps 759 mmHg 94%
08:00 +2°C° 0.6 mm 7 mps 758 mmHg 96%
09:00 +1°C° 0.6 mm 8 mps 758 mmHg 97%
10:00 +1°C° 0.8 mm 8 mps 758 mmHg 97%
11:00 +2°C° 0.8 mm 8 mps 757 mmHg 97%
12:00 +2°C° 0.8 mm 8 mps 757 mmHg 97%
13:00 +3°C° 0.6 mm 6 mps 756 mmHg 98%
14:00 +3°C° 0.6 mm 5 mps 755 mmHg 98%
15:00 +5°C° 0.6 mm 4 mps 755 mmHg 98%
16:00 +5°C° 0.2 mm 4 mps 755 mmHg 99%
17:00 +6°C° 0.2 mm 4 mps 755 mmHg 99%
18:00 +7°C° 0.2 mm 3 mps 755 mmHg 99%
19:00 +7°C° 0 mm 3 mps 756 mmHg 99%
20:00 +7°C° 0 mm 3 mps 756 mmHg 98%
21:00 +7°C° 0 mm 3 mps 757 mmHg 98%
22:00 +7°C° 0 mm 3 mps 757 mmHg 98%
23:00 +5°C° 0 mm 3 mps 757 mmHg 98%

Tomorrow, 27 January, Wednesday

Time Temperature Precipitation Wind Pressure Humidity
00:00 +6°C° 0 mm 2 mps 757 mmHg 98%
01:00 +5°C° 0 mm 3 mps 757 mmHg 98%
02:00 +5°C° 0 mm 3 mps 757 mmHg 98%
03:00 +5°C° 0 mm 4 mps 757 mmHg 99%
04:00 +6°C° 0 mm 4 mps 757 mmHg 99%
05:00 +7°C° 0 mm 3 mps 757 mmHg 99%
06:00 +7°C° 0 mm 3 mps 757 mmHg 99%
07:00 +7°C° 0.1 mm 3 mps 758 mmHg 99%
08:00 +7°C° 0.1 mm 3 mps 758 mmHg 99%
09:00 +7°C° 0.1 mm 3 mps 758 mmHg 99%
10:00 +8°C° 0 mm 3 mps 758 mmHg 99%
11:00 +7°C° 0 mm 4 mps 758 mmHg 99%
12:00 +7°C° 0 mm 4 mps 758 mmHg 98%
13:00 +7°C° 0 mm 4 mps 758 mmHg 98%
14:00 +7°C° 0 mm 4 mps 758 mmHg 98%
15:00 +7°C° 0 mm 4 mps 757 mmHg 98%
16:00 +8°C° 0.1 mm 3 mps 757 mmHg 98%
17:00 +7°C° 0.1 mm 2 mps 757 mmHg 98%
18:00 +7°C° 0.1 mm 2 mps 756 mmHg 98%
19:00 +7°C° 0.8 mm 2 mps 756 mmHg 98%
20:00 +7°C° 0.8 mm 3 mps 755 mmHg 98%
21:00 +7°C° 0.8 mm 4 mps 755 mmHg 98%
22:00 +7°C° 0.6 mm 5 mps 754 mmHg 98%
23:00 +7°C° 0.6 mm 5 mps 753 mmHg 99%

Day after tomorrow, 28 January, Thursday

Time Temperature Precipitation Wind Pressure Humidity
00:00 +8°C° 0.6 mm 6 mps 752 mmHg 99%
01:00 +8°C° 1.4 mm 6 mps 752 mmHg 99%
02:00 +9°C° 1.4 mm 7 mps 751 mmHg 98%
03:00 +9°C° 1.4 mm 8 mps 750 mmHg 98%
04:00 +9°C° 0.3 mm 8 mps 750 mmHg 98%
05:00 +8°C° 0.3 mm 9 mps 750 mmHg 98%
06:00 +8°C° 0.3 mm 9 mps 750 mmHg 98%
07:00 +8°C° 0.1 mm 9 mps 750 mmHg 97%
08:00 +8°C° 0.1 mm 9 mps 750 mmHg 97%
09:00 +9°C° 0.1 mm 8 mps 750 mmHg 96%
10:00 +9°C° 0 mm 8 mps 750 mmHg 95%
11:00 +9°C° 0 mm 8 mps 751 mmHg 93%
12:00 +10°C° 0 mm 8 mps 751 mmHg 92%
13:00 +9°C° 0 mm 7 mps 751 mmHg 93%
14:00 +9°C° 0 mm 7 mps 750 mmHg 94%
15:00 +9°C° 0 mm 6 mps 750 mmHg 95%
16:00 +9°C° 1 mm 7 mps 749 mmHg 96%
17:00 +8°C° 1 mm 9 mps 749 mmHg 96%
18:00 +8°C° 1 mm 10 mps 749 mmHg 96%
19:00 +8°C° 0 mm 9 mps 749 mmHg 93%
20:00 +7°C° 0 mm 9 mps 750 mmHg 89%
21:00 +6°C° 0 mm 8 mps 750 mmHg 86%
22:00 +7°C° 0.1 mm 8 mps 751 mmHg 89%
23:00 +7°C° 0.1 mm 8 mps 751 mmHg 91%

29 January, Friday

Time Temperature Precipitation Wind Pressure Humidity
00:00 +7°C° 0.1 mm 8 mps 752 mmHg 94%
01:00 +7°C° 0.2 mm 8 mps 752 mmHg 94%
02:00 +7°C° 0.2 mm 8 mps 752 mmHg 93%
03:00 +7°C° 0.2 mm 8 mps 752 mmHg 93%
04:00 +6°C° 0 mm 8 mps 752 mmHg 94%
05:00 +6°C° 0 mm 7 mps 752 mmHg 94%
06:00 +5°C° 0 mm 6 mps 752 mmHg 94%
07:00 +5°C° 0 mm 6 mps 752 mmHg 94%
08:00 +5°C° 0 mm 6 mps 753 mmHg 94%
09:00 +5°C° 0 mm 6 mps 753 mmHg 95%
10:00 +7°C° 0 mm 6 mps 753 mmHg 91%
11:00 +7°C° 0 mm 6 mps 754 mmHg 87%
12:00 +8°C° 0 mm 7 mps 754 mmHg 83%
13:00 +8°C° 0 mm 6 mps 754 mmHg 83%
14:00 +8°C° 0 mm 6 mps 754 mmHg 82%
15:00 +8°C° 0 mm 6 mps 754 mmHg 82%
16:00 +7°C° 0 mm 5 mps 755 mmHg 85%
17:00 +6°C° 0 mm 4 mps 755 mmHg 89%
18:00 +5°C° 0 mm 3 mps 755 mmHg 93%
19:00 +5°C° 0 mm 2 mps 755 mmHg 93%
20:00 +6°C° 0 mm 1 mps 755 mmHg 94%
21:00 +5°C° 0 mm 0 mps 755 mmHg 94%
22:00 +6°C° 0 mm 1 mps 754 mmHg 93%
23:00 +6°C° 0 mm 1 mps 754 mmHg 92%

30 January, Saturday

Time Temperature Precipitation Wind Pressure Humidity
00:00 +5°C° 0 mm 2 mps 754 mmHg 91%
01:00 +5°C° 0 mm 2 mps 753 mmHg 90%
02:00 +4°C° 0 mm 3 mps 753 mmHg 89%
03:00 +4°C° 0 mm 3 mps 753 mmHg 89%
04:00 +4°C° 0 mm 3 mps 752 mmHg 88%
05:00 +4°C° 0 mm 3 mps 752 mmHg 87%
06:00 +4°C° 0 mm 4 mps 752 mmHg 86%
07:00 +4°C° 0 mm 4 mps 752 mmHg 86%
08:00 +4°C° 0 mm 4 mps 752 mmHg 85%
09:00 +4°C° 0 mm 4 mps 752 mmHg 85%
10:00 +5°C° 0.2 mm 4 mps 752 mmHg 85%
11:00 +5°C° 0.2 mm 5 mps 752 mmHg 84%
12:00 +6°C° 0.2 mm 5 mps 753 mmHg 83%
13:00 +5°C° 0.5 mm 5 mps 752 mmHg 87%
14:00 +5°C° 0.5 mm 5 mps 752 mmHg 90%
15:00 +5°C° 0.5 mm 5 mps 752 mmHg 93%
16:00 +5°C° 0.1 mm 5 mps 752 mmHg 93%
17:00 +5°C° 0.1 mm 5 mps 752 mmHg 94%
18:00 +5°C° 0.1 mm 4 mps 752 mmHg 94%
19:00 +5°C° 0 mm 5 mps 751 mmHg 95%
20:00 +5°C° 0 mm 5 mps 751 mmHg 95%
21:00 +5°C° 0 mm 5 mps 751 mmHg 95%
22:00 +5°C° 0.2 mm 5 mps 750 mmHg 95%
23:00 +4°C° 0.2 mm 6 mps 749 mmHg 96%

31 January, Sunday

Time Temperature Precipitation Wind Pressure Humidity
00:00 +4°C° 0.2 mm 6 mps 748 mmHg 96%
01:00 +4°C° 1.1 mm 7 mps 746 mmHg 96%
02:00 +5°C° 1.1 mm 7 mps 745 mmHg 97%
03:00 +5°C° 1.1 mm 8 mps 743 mmHg 97%
04:00 +5°C° 1.8 mm 7 mps 742 mmHg 97%
05:00 +6°C° 1.8 mm 7 mps 740 mmHg 97%
06:00 +7°C° 1.8 mm 6 mps 738 mmHg 97%
07:00 +6°C° 0.7 mm 7 mps 737 mmHg 97%
08:00 +8°C° 0.7 mm 7 mps 736 mmHg 97%
09:00 +9°C° 0.7 mm 8 mps 736 mmHg 96%
10:00 +9°C° 0.1 mm 7 mps 735 mmHg 95%
11:00 +9°C° 0.1 mm 7 mps 734 mmHg 94%
12:00 +9°C° 0.1 mm 6 mps 734 mmHg 94%
13:00 +9°C° 0.1 mm 5 mps 734 mmHg 94%
14:00 +10°C° 0.1 mm 4 mps 734 mmHg 95%
15:00 +10°C° 0.1 mm 3 mps 734 mmHg 95%
16:00 +10°C° 0 mm 4 mps 735 mmHg 95%
17:00 +9°C° 0 mm 5 mps 736 mmHg 96%
18:00 +9°C° 0 mm 6 mps 737 mmHg 96%
19:00 +7°C° 0 mm 8 mps 739 mmHg 92%
20:00 +7°C° 0 mm 9 mps 740 mmHg 89%
21:00 +7°C° 0 mm 10 mps 741 mmHg 86%
22:00 +6°C° 0 mm 10 mps 742 mmHg 86%
23:00 +6°C° 0 mm 9 mps 743 mmHg 87%
Show more